Weather History for Winchester, VA

Change the Weather History Date:

Thursday, February 28, 2013

  Actual Average Record
Temperature  
Mean Temperature 36 °F -  
Max Temperature 41 °F 47 °F 66 °F (2011)
Min Temperature 32 °F 29 °F 8 °F (2014)
Degree Days  
Heating Degree Days 28    
Moisture  
Dew Point 30 °F    
Average Humidity 73    
Maximum Humidity 93    
Minimum Humidity 61    
Precipitation  
Precipitation 0.00 in - - ()
Sea Level Pressure  
Sea Level Pressure 29.67 in    
Wind  
Wind Speed 7 mph (West)    
Max Wind Speed 18 mph    
Max Gust Speed 25 mph    
Visibility 10 miles    
Events      
Averages and records for this station are not official NWS values.
T = Trace of Precipitation, MM = Missing Value Source: NWS Daily Summary

Daily Weather History Graph

Daily Weather History Graph

Search for Another Location

Airport:

Trip Planner

Search our weather history database for the weather conditions in past years. The results will help you decide how hot, cold, wet, or windy it might be!

Date:

Astronomy

Feb. 28, 2013 Rise Set
Actual Time 6:46 AM EST 6:04 PM EST
Civil Twilight 6:19 AM EST 6:31 PM EST
Nautical Twilight 5:48 AM EST 7:02 PM EST
Astronomical Twilight 5:17 AM EST 7:33 PM EST
Moon 9:27 PM EST (2/28) 7:56 AM EST (2/28)
Length of Visible Light 12h 11m
Length of Day
11h 18m
Waning Gibbous, 91% of the Moon is Illuminated
Feb 28
Waning Gibbous
Mar 4
Last Quarter
Mar 11
New
Mar 19
First Quarter
Mar 27
Full

Hourly Weather History & Observations

Time (EST) Temp. Windchill Dew Point Humidity Pressure Visibility Wind Dir Wind Speed Gust Speed Precip Events Conditions
12:15 AM 41.0 °F 38.0 °F 33.8 °F 76% 29.64 in 10.0 mi WNW 4.6 mph - N/A   Overcast
12:35 AM 41.0 °F - 33.8 °F 76% 29.64 in 10.0 mi Calm Calm - N/A   Overcast
12:55 AM 41.0 °F - 33.8 °F 76% 29.64 in 10.0 mi Calm Calm - N/A   Overcast
1:15 AM 37.4 °F - 33.8 °F 87% 29.64 in 10.0 mi Calm Calm - N/A   Overcast
1:35 AM 39.2 °F - 33.8 °F 81% 29.64 in 10.0 mi Calm Calm - N/A   Overcast
1:55 AM 37.4 °F 34.9 °F 35.6 °F 93% 29.64 in 10.0 mi NNE 3.5 mph - N/A   Overcast
2:15 AM 41.0 °F 35.8 °F 33.8 °F 76% 29.64 in 10.0 mi NW 8.1 mph - N/A   Overcast
2:35 AM 41.0 °F 34.3 °F 32.0 °F 70% 29.64 in 10.0 mi WNW 11.5 mph - N/A   Overcast
3:15 AM 37.4 °F 32.8 °F 32.0 °F 81% 29.64 in 10.0 mi NW 5.8 mph - N/A   Mostly Cloudy
3:35 AM 37.4 °F 30.8 °F 32.0 °F 81% 29.64 in 10.0 mi WNW 9.2 mph - N/A   Overcast
3:55 AM 35.6 °F 29.9 °F 32.0 °F 87% 29.64 in 10.0 mi NW 6.9 mph - N/A   Overcast
4:15 AM 35.6 °F 32.8 °F 32.0 °F 87% 29.65 in 10.0 mi West 3.5 mph - N/A   Overcast
4:35 AM 35.6 °F - 30.2 °F 81% 29.65 in 10.0 mi Calm Calm - N/A   Scattered Clouds
4:55 AM 33.8 °F - 30.2 °F 87% 29.65 in 10.0 mi Calm Calm - N/A   Scattered Clouds
5:15 AM 33.8 °F - 30.2 °F 87% 29.66 in 10.0 mi Calm Calm - N/A   Scattered Clouds
5:35 AM 33.8 °F - 30.2 °F 87% 29.66 in 10.0 mi Calm Calm - N/A   Mostly Cloudy
5:55 AM 32.0 °F - 28.4 °F 87% 29.66 in 10.0 mi Calm Calm - N/A   Mostly Cloudy
6:15 AM 33.8 °F - 30.2 °F 87% 29.66 in 10.0 mi Calm Calm - N/A   Mostly Cloudy
6:35 AM 35.6 °F 31.7 °F 28.4 °F 75% 29.66 in 10.0 mi West 4.6 mph - N/A   Overcast
6:55 AM 35.6 °F 31.7 °F 28.4 °F 75% 29.66 in 10.0 mi WSW 4.6 mph - N/A   Overcast
7:15 AM 35.6 °F 29.2 °F 28.4 °F 75% 29.66 in 10.0 mi West 8.1 mph - N/A   Mostly Cloudy
7:35 AM 37.4 °F 33.8 °F 26.6 °F 65% 29.66 in 10.0 mi WSW 4.6 mph - N/A   Mostly Cloudy
7:55 AM 37.4 °F 33.8 °F 28.4 °F 70% 29.66 in 10.0 mi West 4.6 mph - N/A   Mostly Cloudy
8:15 AM 37.4 °F 32.1 °F 28.4 °F 70% 29.67 in 10.0 mi WSW 6.9 mph - N/A   Overcast
8:35 AM 39.2 °F 33.0 °F 28.4 °F 65% 29.67 in 10.0 mi West 9.2 mph - N/A   Overcast
8:55 AM 39.2 °F 34.2 °F 28.4 °F 65% 29.66 in 10.0 mi WSW 6.9 mph - N/A   Mostly Cloudy
9:15 AM 39.2 °F 32.5 °F 28.4 °F 65% 29.66 in 10.0 mi WSW 10.4 mph - N/A   Mostly Cloudy
9:35 AM 39.2 °F 33.0 °F 28.4 °F 65% 29.66 in 10.0 mi West 9.2 mph - N/A   Mostly Cloudy
9:55 AM 39.2 °F 34.2 °F 28.4 °F 65% 29.66 in 10.0 mi West 6.9 mph - N/A   Mostly Cloudy
10:15 AM 39.2 °F 33.6 °F 28.4 °F 65% 29.66 in 10.0 mi West 8.1 mph - N/A   Overcast
10:35 AM 39.2 °F 32.0 °F 28.4 °F 65% 29.66 in 10.0 mi West 11.5 mph - N/A   Overcast
10:55 AM 39.2 °F 32.0 °F 30.2 °F 70% 29.66 in 10.0 mi West 11.5 mph - N/A   Overcast
11:15 AM 37.4 °F 28.2 °F 30.2 °F 75% 29.66 in 10.0 mi West 16.1 mph 25.3 mph N/A   Overcast
11:35 AM 39.2 °F 31.2 °F 30.2 °F 70% 29.67 in 10.0 mi West 13.8 mph 19.6 mph N/A   Mostly Cloudy
11:55 AM 41.0 °F 35.2 °F 30.2 °F 65% 29.67 in 10.0 mi WSW 9.2 mph 17.3 mph N/A   Scattered Clouds
12:15 PM 39.2 °F 32.5 °F 28.4 °F 65% 29.66 in 10.0 mi West 10.4 mph - N/A   Overcast
12:35 PM 39.2 °F 31.6 °F 28.4 °F 65% 29.66 in 10.0 mi WSW 12.7 mph 18.4 mph N/A   Overcast
12:55 PM 41.0 °F 34.3 °F 28.4 °F 61% 29.65 in 10.0 mi West 11.5 mph 17.3 mph N/A   Overcast
1:35 PM 39.2 °F 30.5 °F 28.4 °F 65% 29.65 in 10.0 mi West 16.1 mph 19.6 mph N/A   Overcast
1:55 PM 41.0 °F 34.3 °F 28.4 °F 61% 29.65 in 10.0 mi West 11.5 mph 18.4 mph N/A   Overcast
2:15 PM 41.0 °F 32.8 °F 28.4 °F 61% 29.64 in 10.0 mi West 16.1 mph 19.6 mph N/A   Overcast
2:35 PM 41.0 °F 32.5 °F 28.4 °F 61% 29.65 in 10.0 mi West 17.3 mph 21.9 mph N/A   Overcast
2:55 PM 41.0 °F 33.1 °F 28.4 °F 61% 29.65 in 10.0 mi West 15.0 mph 18.4 mph N/A   Overcast
3:15 PM 41.0 °F 32.2 °F 28.4 °F 61% 29.65 in 10.0 mi West 18.4 mph 25.3 mph N/A   Mostly Cloudy
3:35 PM 41.0 °F 32.8 °F 30.2 °F 65% 29.65 in 10.0 mi West 16.1 mph 21.9 mph N/A   Scattered Clouds
3:55 PM 41.0 °F 35.2 °F 30.2 °F 65% 29.64 in 10.0 mi West 9.2 mph 18.4 mph N/A   Mostly Cloudy
4:15 PM 39.2 °F 30.8 °F 30.2 °F 70% 29.65 in 10.0 mi West 15.0 mph - N/A   Mostly Cloudy
4:35 PM 39.2 °F 31.2 °F 30.2 °F 70% 29.65 in 10.0 mi West 13.8 mph 17.3 mph N/A   Scattered Clouds
4:55 PM 41.0 °F 33.5 °F 30.2 °F 65% 29.65 in 10.0 mi West 13.8 mph 18.4 mph N/A   Mostly Cloudy
5:15 PM 37.4 °F 29.8 °F 30.2 °F 75% 29.66 in 10.0 mi West 11.5 mph - N/A   Overcast
5:35 PM 37.4 °F 32.1 °F 30.2 °F 75% 29.67 in 10.0 mi WNW 6.9 mph - N/A   Overcast
5:55 PM 37.4 °F 31.4 °F 30.2 °F 75% 29.68 in 10.0 mi West 8.1 mph - N/A   Overcast
6:15 PM 39.2 °F 32.0 °F 30.2 °F 70% 29.68 in 10.0 mi West 11.5 mph - N/A   Overcast
6:35 PM 39.2 °F 33.6 °F 28.4 °F 65% 29.69 in 10.0 mi West 8.1 mph - N/A   Overcast
6:55 PM 39.2 °F 33.6 °F 28.4 °F 65% 29.70 in 10.0 mi West 8.1 mph - N/A   Overcast
7:15 PM 39.2 °F 33.6 °F 28.4 °F 65% 29.71 in 10.0 mi West 8.1 mph - N/A   Overcast
7:35 PM 39.2 °F 33.6 °F 30.2 °F 70% 29.71 in 10.0 mi WNW 8.1 mph - N/A   Overcast
7:55 PM 39.2 °F 31.6 °F 30.2 °F 70% 29.71 in 10.0 mi West 12.7 mph - N/A   Overcast
8:15 PM 39.2 °F 31.6 °F 30.2 °F 70% 29.72 in 10.0 mi West 12.7 mph 17.3 mph N/A   Overcast
8:35 PM 39.2 °F 31.6 °F 30.2 °F 70% 29.72 in 10.0 mi West 12.7 mph 19.6 mph N/A   Overcast
8:55 PM 39.2 °F 31.2 °F 30.2 °F 70% 29.73 in 10.0 mi West 13.8 mph 19.6 mph N/A   Overcast
9:15 PM 37.4 °F 29.3 °F 30.2 °F 75% 29.73 in 10.0 mi West 12.7 mph 16.1 mph N/A   Overcast
9:35 PM 37.4 °F 29.8 °F 30.2 °F 75% 29.73 in 10.0 mi WNW 11.5 mph 18.4 mph N/A   Overcast
9:55 PM 37.4 °F 29.3 °F 32.0 °F 81% 29.73 in 10.0 mi WNW 12.7 mph - N/A   Overcast
10:15 PM 37.4 °F 28.2 °F 32.0 °F 81% 29.73 in 10.0 mi WNW 16.1 mph 19.6 mph N/A   Overcast
10:35 PM 37.4 °F 27.5 °F 32.0 °F 81% 29.73 in 10.0 mi NW 18.4 mph 21.9 mph N/A   Overcast
10:55 PM 37.4 °F 30.8 °F 32.0 °F 81% 29.73 in 10.0 mi NW 9.2 mph - N/A   Overcast
11:15 PM 37.4 °F 32.1 °F 32.0 °F 81% 29.73 in 10.0 mi NNW 6.9 mph - N/A   Overcast
11:35 PM 37.4 °F 33.8 °F 30.2 °F 75% 29.74 in 10.0 mi NW 4.6 mph - N/A   Overcast
11:55 PM 37.4 °F 30.3 °F 32.0 °F 81% 29.73 in 10.0 mi WNW 10.4 mph 16.1 mph N/A   Overcast